Regional Weather Roundup
Issued by NWS Upton, NY

Current Version | Previous Version | Graphics & Text | Print | Product List | Glossary Off
Versions: 1 2 3 4 5 6 7 8 9 10 11 12 13 14 15 16 17 18 19 20 21 22 23 24 25 26 27 28 29 30 31 32 33 34 35 36 37 38 39 40 41 42 43 44 45 46 47 48 49 50

000
ASUS41 KOKX 231904
RWROKX

REGIONAL WEATHER ROUNDUP
NATIONAL WEATHER SERVICE NEW YORK NY
300 PM EDT TUE AUG 23 2016

NOTE: "FAIR" INDICATES FEW OR NO CLOUDS BELOW 12,000 FEET WITH NO
SIGNIFICANT WEATHER AND/OR OBSTRUCTIONS TO VISIBILITY.

NYZ071-072-176-178-NJZ106-104-232000-
NEW YORK CITY METRO AREA

CITY           SKY/WX    TMP DP  RH WIND       PRES   REMARKS
Central Park   SUNNY     80  51  36 W3        30.30F
LaGuardia APRT MOSUNNY   82  49  31 SW6       30.27F
Kennedy INTL   MOSUNNY   79  55  43 S14       30.28F
Newark/Liberty MOSUNNY   84  51  31 W8G20     30.27F
Bronx Bot Gard   N/A     79  50  36 W6        30.29F
Wall St Helipt CLEAR     82  54  36 SW5       30.28F
Teterboro      SUNNY     81  50  33 NW7       30.26F
$$

NYZ177-179-078>081-232000-
LONG ISLAND NEW YORK

CITY           SKY/WX    TMP DP  RH WIND       PRES   REMARKS
Farmingdale    SUNNY     77  51  40 S13       30.28F
MacArthur/ISP  MOSUNNY   77  52  41 S10G16    30.28F
Shirley        SUNNY     76  54  46 S13       30.29F
Riverhead      NOT AVBL
Westhampton    SUNNY     75  51  43 S10       30.30F
Southampton      N/A     73  55  53 SW8       30.25F
Bridgehampton    N/A     77  55  47 S1        30.28F
East Hampton   FAIR      74  52  47 S10       30.27F
Montauk          N/A     75  52  44 S7        30.29F
$$

NYZ052-065-067-232000-
HUDSON VALLEY

CITY           SKY/WX    TMP DP  RH WIND       PRES   REMARKS
White Plains   MOSUNNY   78  51  38 VRB5      30.28F
Newburgh       MOSUNNY   77  57  50 W6        30.30F
Montgomery     MOSUNNY   79  58  48 W9        30.27F
Poughkeepsie   SUNNY     79  55  43 W8        30.26F
Albany         MOSUNNY   78  53  41 W8G18     30.26F
$$

NJZ001-105-106-008-010-013-015-019>022-104-232000-
NEW JERSEY

CITY           SKY/WX    TMP DP  RH WIND       PRES   REMARKS
Newark/Liberty MOSUNNY   84  51  31 W8G20     30.27F
Teterboro      SUNNY     81  50  33 NW7       30.26F
Caldwell         N/A     80  52  37 VRB7      30.28F
Morristown     MOSUNNY   79  54  41 W6        30.30S
Somerville     SUNNY     80  54  40 W5        30.27F
Linden         FAIR      81  49  32 CALM      30.29F
Sussex         MOSUNNY   79  58  48 SW9       30.29F
Abdover          N/A     77  56  48 VRB5      30.30F
Trenton        SUNNY     81  53  37 MISG      30.29F
Millville      SUNNY     79  56  45 VRB6      30.30F
Atlantic City  SUNNY     79  53  40 MISG      30.30F
Wrightstown    SUNNY     80  55  41 VRB2      30.26F
Toms River     PTSUNNY   80  58  46 SE7       30.30F
Belmar         SUNNY     78  55  44 SE10      30.30F
$$

PAZ047>061-062-071-232000-
EASTERN PENNSYLVANIA

CITY           SKY/WX    TMP DP  RH WIND       PRES   REMARKS
Philadelphia   MOSUNNY   81  51  35 SW8       30.29F
Allentown      SUNNY     80  55  42 S3        30.30F
Scranton       MOSUNNY   78  56  46 W12       30.30F
$$

CTZ002-004>006-009-010-012-RIZ004-006-007-MAZ004-011-015-232000-
SOUTHERN NEW ENGLAND
 IN CT

CITY           SKY/WX    TMP DP  RH WIND       PRES   REMARKS
Bradley INTL   MOSUNNY   79  50  36 VRB7      30.26F
Hartford       SUNNY     81  54  39 E3        30.25F
Danbury        SUNNY     76  50  40 VRB3      30.29F
Wtrbury/Oxford MOSUNNY   75  50  41 NW7       30.31F
Bridgeport     SUNNY     79  51  37 S14       30.28F
Meriden        SUNNY     80  51  36 SW6       30.26F
New Haven      SUNNY     76  55  48 S9G18     30.28F
Chester        FAIR      75  54  46 S8G15     30.28F
Groton         SUNNY     77  57  50 SW9       30.27F
Wilimantic     SUNNY     77  51  40 VRB5      30.27F

 IN RI

CITY           SKY/WX    TMP DP  RH WIND       PRES   REMARKS
Providence     MOSUNNY   77  52  41 SE15      30.26F
Block Island   SUNNY     75  50  41 SW13      30.28F
Westerly       SUNNY     76  46  34 SW13      30.28F
 IN MA

CITY           SKY/WX    TMP DP  RH WIND       PRES   REMARKS
Boston         MOSUNNY   81  46  29 SW12G21   30.22F
Worcester      SUNNY     74  47  38 W13       30.28S
Westfield      SUNNY     81  49  32 VRB7      30.25F
Provincetown   SUNNY     77  46  33 S3        30.25F
Nantucket      SUNNY     72  56  57 SW12      30.26F
$$

ANZ330-335-338-340-345-350-353-355-232000-
COASTAL MARINE OBSERVATIONS


STATION/POSITION TIME  SKY/WX   TEMP    WIND        PRES    VSBY  WAVE
                                AIR SEA DIR/SP/G                  HT/PER
                 (UTC)          (F)     (DEG/KT/KT) (MB)    (MI)  (FT/S)
NY HARB ENTRANCE 1750            73 79  170/  8/ 10 1026.1          1/13
20S FIRE ISLAND  1750            71 79  180/  2/  4 1026.4          2/13
GREAT SOUTH BAY  1800            72 80  220/ 10/ 14   N/A
23 SSW MONTAUK P 1750            71 76  220/  4/  8 1026.6          2/ 8
15 E BARNEGAT LI 1800               77                N/A           2/13
HUDSON CANYON    1750            72 79              1026.4          2/ 4
KINGS POINT      1800            79 76              1025.6
EXECUTION ROCKS  1800            76     130/  4/  6   N/A
CENTRAL LI SOUND 1800            72 75  220/ 10/ 12   N/A           1
EASTERN LI SOUND 1800            71 70  200/ 10/ 12   N/A
ROBBINS REEF     1800            76     100/  3/  3 1025.0
$$


>>>>>>>>>>>>>>>>>>>>>>>>>>>> KEY <<<<<<<<<<<<<<<<<<<<<<<<<<<
>                                                          <
>     SKY/WX - Sky Condition/Present Weather               <
>     TMP    - Temperature in Fahrenheit                   <
>     DP     - Dew Point in Fahrenheit                     <
>     RH     - Relative Humidity in Percent                <
>     WIND   - Direction (from) and Speed in MPH           <
>     PRES   - Mean Sea Level Pressure (inches of Hg)      <
>     WCI    - Wind Chill Index                            <
>     VSB    - VISIBILITY IN MILES                         <
>     HX     - HEAT INDEX                                  <
>     TC     - TEMPERATURE IN CELSIUS                      <
>     VRB    - VARIABLE WIND DIRECTION                     <
>                                                          <
>>>>>>>>>>>>>>>>>>>>>>>>>>>> KEY <<<<<<<<<<<<<<<<<<<<<<<<<<<



USA.gov is the U.S. government's official web portal to all federal, state and local government web resources and services.